Location: Oberwangen
(47.4286°N, 8.9679°E)
Time: 09:25:33
(UTC+00:00)

Uosat 12 SS-18 rocket - Pass Details

Date: 20 June 2021
Orbit: 587 x 1397 km, 64.6° (Epoch: 04 August)

Event Time Altitude Azimuth Distance (km) Brightness Sun altitude
Rises 21:34:54 0° 219° (SW) 2,827 7.2 -14.9°
Reaches altitude 10° 21:37:01 10° 220° (SW) 1,964 6.4 -15.0°
Maximum altitude 21:41:23 82° 309° (NW) 677 4.3 -15.3°
Drops below altitude 10° 21:46:30 10° 37° (NE) 2,290 7.3 -15.7°
Sets 21:49:08 0° 38° (NE) 3,342 8.2 -15.9°
